User: anonymous   Login
Location: *
(17.3280°S, 114.7300°W)
Time: 13:31:12
(UTC+00:00)
Language:

CZ-3 R/B - Orbit

View from above orbital plane
View from above orbital plane
View from above satellite
View from above satellite

Ground track
Ground track

The orbit data is extracted from the following two-line orbital elements,

1 29517U 06048B   20294.46940949 +.00000516 +00000-0 +14408-3 0  9996
2 29517 028.3574 039.1790 4223986 136.9531 265.2312 06.87472255251393
Epoch (UTC): 20 October 2020 11:15:56
Eccentricity: 0.4223986
inclination: 28.3574°
perigee height: 370 km
apogee height: 10240 km
right ascension of ascending node: 39.1790°
argument of perigee: 136.9531°
revolutions per day: 6.87472255
mean anomaly at epoch: 265.2312°
orbit number at epoch: 25139

The dashed part of the orbit path shows where the satellite is in the earth's shadow,  

DLR